Temperature
13 13 13 13 13 13 14 14 14 13 13 13 13 13 13 13 13 13 13 14 13 13 13 13 13 13 13 13 13 13 13 13 12 12 12 12 12 12 12 12 12 12 12
13 13 13 13 13 13 13 13 13 13 13 13 13 13 13 13 13 13 13 13 13 13 13 13 13 13 13 12 12 12 13 12 12 12 12 12 12 12 12 12 12 12 12
13 13 13 13 13 13 13 13 13 13 13 13 13 13 13 13 13 13 13 13 13 13 13 13 13 13 13 12 12 12 12 12 12 12 12 12 12 12 12 12 12 12 12
12 12 12 12 12 13 13 13 13 12 12 12 13 13 13 13 13 13 12 13 13 13 13 13 13 13 12 12 12 12 12 12 12 12 12 12 12 12 12 12 12 11 11
12 12 12 12 12 12 12 12 12 12 12 12 12 12 12 12 12 12 12 12 12 12 12 12 12 12 12 12 12 12 12 12 12 12 12 12 11 11 11 11 11 11 11
11 11 11 12 12 12 12 12 12 12 12 12 12 12 12 12 12 12 12 12 12 12 12 12 12 12 12 12 12 12 12 11 11 11 11 11 11 11 11 11 11 11 11
11 11 11 11 11 11 11 11 11 11 11 11 11 11 11 11 12 12 12 12 12 12 12 12 12 11 11 12 12 11 11 11 11 11 11 11 11 11 10 10 10 10 10
10 10 10 10 10 11 11 11 11 11 11 11 10 10 11 11 11 11 11 11 11 11 11 11 11 11 11 11 11 11 11 11 11 10 10 10 10 10 10 10 10 10 9
9 10 10 10 10 10 10 10 10 10 10 10 10 10 10 11 11 11 11 11 11 11 11 11 11 11 10 10 10 10 11 11 10 10 10 10 10 10 9 9 9 9 9
9 9 9 9 10 10 10 10 10 10 10 9 10 10 10 10 10 10 10 10 10 10 10 10 10 10 10 10 10 10 10 10 10 10 10 10 9 9 9 9 9 9 9
9 9 9 9 9 9 9 9 9 9 9 9 9 9 9 9 9 9 9 9 9 9 10 10 10 9 9 9 10 10 10 10 10 9 9 9 9 9 9 8 8 8 8
8 8 8 8 8 8 9 9 9 9 9 9 9 9 9 9 9 8 8 8 8 9 9 9 9 9 9 9 9 9 9 9 9 9 9 8 8 8 8 8 8 8 8
7 8 8 8 8 8 8 8 8 8 8 8 8 8 8 8 8 8 8 7 7 8 8 8 8 8 8 8 8 8 8 8 8 8 8 8 8 8 8 8 7 7 7
7 7 7 7 7 7 8 8 8 8 8 8 8 8 8 8 8 7 7 7 7 7 7 7 7 7 7 7 7 7 7 7 7 7 7 7 7 7 7 7 7 7 7
7 7 7 7 7 7 7 7 7 7 7 7 7 7 7 7 7 7 7 7 6 6 6 6 6 7 7 6 7 7 7 7 7 7 7 6 6 6 6 6 6 6 6
6 6 6 6 6 7 7 7 7 7 7 7 7 7 6 6 6 7 6 6 6 5 5 6 5 6 6 6 6 6 6 6 6 6 6 6 6 6 6 6 6 6 6
6 6 6 6 6 6 6 6 6 6 6 6 6 6 6 6 6 6 5 5 5 5 5 5 5 5 5 5 5 5 5 5 5 5 5 5 5 5 5 5 5 5 5
5 5 5 5 6 6 6 6 6 6 6 6 6 5 5 5 5 5 5 5 5 4 4 4 4 4 5 4 4 4 4 5 5 5 5 5 5 5 5 5 5 5 4
5 5 5 5 5 5 5 5 5 5 5 5 5 5 5 5 5 4 4 4 4 4 4 3 4 4 4 4 4 4 4 4 4 4 4 4 4 4 4 4 4 4 4
5 5 5 5 5 5 5 5 4 4 4 4 5 4 4 4 4 4 4 3 3 3 3 3 3 3 3 3 3 3 3 3 3 3 3 3 3 4 4 4 4 4 4
4 4 4 4 4 4 4 4 4 4 4 4 4 4 4 4 3 3 3 3 3 2 2 2 2 2 2 2 2 2 2 2 2 2 2 3 3 3 3 3 3 3 3
4 4 3 3 3 3 3 3 3 3 3 3 3 3 3 3 3 3 3 2 2 2 1 1 1 1 1 1 1 1 1 1 1 1 1 2 2 2 2 2 2 2 3
3 3 3 3 3 3 3 3 3 3 2 2 2 2 2 2 2 2 2 2 1 1 1 1 0 0 0 0 0 0 -0 -0 -0 0 0 1 1 1 1 2 2 2 2
3 3 3 3 3 3 3 2 2 2 2 2 2 2 2 2 2 1 1 1 1 1 1 0 -0 -0 -0 -0 -1 -1 -1 -1 -0 -0 -1 -1 0 0 1 1 1 1 1
3 3 2 2 2 2 2 2 2 2 2 2 1 1 1 1 1 1 1 1 1 0 0 -0 -0 -0 -0 -0 -1 -1 -1 -1 -1 -1 -1 -2 -1 -1 -0 0 0 1 1
2 2 2 2 2 2 2 2 2 1 1 1 1 1 1 1 1 0 0 0 0 -0 -0 -0 -0 -0 -1 -1 -1 -1 -2 -2 -2 -2 -2 -2 -2 -3 -2 -1 -1 -0 0
Wind_Speed
4 5 5 5 6 6 6 6 7 8 8 8 8 8 8 9 9 8 6 9 10 10 10 10 10 10 10 10 9 9 8 9 8 8 8 8 7 7 8 8 8 8 8
5 5 5 5 6 6 6 6 7 6 6 6 7 8 8 8 9 9 8 8 10 11 11 11 11 11 10 10 10 10 9 9 9 8 8 8 7 8 8 8 8 9 8
5 5 5 5 5 6 7 6 7 6 6 6 8 9 8 8 8 9 9 9 9 11 12 12 12 11 11 10 10 9 8 8 8 8 8 7 7 8 8 8 8 8 9
6 5 5 5 6 5 5 5 6 6 6 6 7 7 7 7 9 9 8 9 8 8 10 11 11 10 10 10 9 9 9 8 8 8 9 9 9 9 9 9 10 9 10
6 5 5 5 6 5 5 5 5 6 6 6 6 6 6 7 7 8 9 9 8 7 7 7 9 10 9 9 9 9 9 9 9 9 9 9 10 10 11 11 11 11 12
5 5 5 5 5 5 5 5 5 5 5 5 5 5 6 6 6 7 8 7 7 7 7 6 7 7 8 8 8 8 9 9 9 9 9 10 10 11 12 12 12 13 13
4 4 4 4 4 5 5 6 5 6 5 4 4 4 5 7 7 7 7 6 6 6 6 6 6 5 5 6 7 7 8 9 10 10 10 10 11 12 12 13 13 13 14
4 4 4 4 4 4 5 6 5 5 4 4 4 3 4 5 5 6 6 6 6 5 5 5 5 5 5 4 4 6 8 9 10 11 11 12 12 13 14 14 14 14 14
3 4 4 4 4 4 5 5 6 6 5 5 4 4 4 5 3 4 6 6 6 5 4 4 4 5 5 4 4 4 7 9 10 12 13 13 13 14 15 15 15 15 16
4 4 4 4 4 4 5 5 5 5 6 5 4 4 5 4 4 3 3 4 4 5 4 4 4 4 4 4 5 5 6 8 11 12 13 14 14 15 16 16 16 16 17
3 3 4 3 3 4 5 5 5 6 6 6 5 4 5 4 5 5 5 4 3 4 4 4 4 4 5 5 5 6 7 9 11 12 13 14 15 16 16 16 16 17 17
3 3 3 3 3 3 4 5 5 6 5 6 5 5 5 4 4 5 6 6 5 4 4 4 4 4 4 5 6 7 8 10 11 13 14 15 15 15 16 16 17 17 17
3 3 3 3 3 3 3 3 4 4 4 5 5 4 4 5 4 4 5 5 5 5 5 4 4 4 4 5 6 7 10 11 12 14 15 16 16 16 16 17 17 17 18
3 4 3 3 3 2 2 2 2 2 3 3 3 4 3 3 3 4 4 4 5 5 6 6 4 4 4 5 7 9 10 11 13 15 16 16 16 16 16 16 16 17 17
3 4 3 3 2 2 2 2 2 2 2 2 3 3 3 3 3 3 3 4 5 6 7 6 5 5 5 7 8 9 10 11 13 15 15 16 16 16 16 16 16 17 17
3 3 3 3 3 2 2 2 2 2 2 2 2 3 3 2 2 3 3 4 5 6 6 5 5 6 6 7 9 10 11 12 13 14 15 16 16 17 17 16 16 17 17
3 3 3 3 3 3 2 2 2 2 2 2 2 2 3 3 3 3 3 3 4 5 7 7 6 6 8 8 8 9 10 10 10 12 14 15 16 16 16 16 16 17 17
3 3 3 3 3 3 3 3 3 3 3 2 2 3 3 3 3 3 3 4 4 5 6 8 7 7 8 8 8 9 8 9 10 12 14 15 15 15 15 15 16 16 17
3 3 3 3 3 3 3 3 3 3 3 3 3 3 4 4 4 3 3 4 4 4 5 7 7 6 6 6 8 8 9 8 9 11 13 13 13 14 16 16 16 16 17
3 3 3 3 3 3 3 3 3 3 3 3 3 4 4 4 4 4 4 4 4 4 4 5 6 6 6 6 6 7 8 7 8 9 10 10 12 14 15 15 16 16 16
3 3 3 3 3 3 3 3 3 4 3 3 3 3 3 3 4 4 4 4 4 4 4 5 6 6 6 5 6 6 8 8 9 7 7 8 9 9 10 12 13 14 16
3 3 3 3 3 3 3 4 4 4 4 4 4 3 3 4 4 4 4 5 4 5 5 5 6 7 7 7 7 7 7 8 7 5 8 9 8 8 8 9 12 14 16
3 4 4 4 4 3 4 4 4 4 4 4 4 3 3 3 3 3 4 4 5 5 6 7 7 8 8 8 8 8 8 8 9 8 8 9 8 9 8 9 13 14 15
4 4 4 4 4 3 4 4 4 4 4 4 3 4 4 3 3 3 3 4 4 4 5 5 6 7 7 8 8 8 8 9 9 7 6 7 8 8 9 9 12 12 13
5 4 4 4 4 4 4 4 4 3 4 4 3 3 3 4 3 3 3 4 4 4 3 4 5 7 8 9 7 6 6 6 7 7 5 5 6 9 9 8 8 10 12
5 4 4 4 5 4 4 4 5 3 3 3 3 3 3 3 3 3 4 4 4 5 4 5 5 6 6 6 6 5 5 5 5 5 4 4 6 6 6 5 7 8 10
Wind_Direction
250 246 242 234 235 234 227 228 228 226 226 227 225 223 223 223 224 223 218 205 218 229 235 239 240 239 235 235 237 240 243 242 246 250 254 260 267 275 278 280 284 287 291
254 251 248 242 240 238 234 231 229 228 229 225 227 225 227 228 229 227 227 215 216 227 234 240 244 243 241 240 240 242 243 245 247 250 254 259 265 273 278 281 282 283 286
256 253 252 246 242 241 236 232 229 227 230 229 229 230 230 231 233 233 229 228 222 222 229 237 242 242 241 243 245 245 245 244 248 250 255 259 264 269 274 281 286 284 285
254 252 252 251 246 238 232 229 224 225 227 231 232 231 229 229 234 236 233 229 229 229 224 228 236 241 242 244 246 247 247 248 250 253 256 260 264 267 270 276 281 281 283
258 249 248 251 246 238 234 231 226 228 230 232 237 237 235 235 237 235 236 234 231 230 232 220 224 234 238 242 246 250 253 256 256 258 259 262 265 267 271 274 277 279 280
273 259 251 248 244 237 236 231 228 232 236 235 238 244 244 240 239 239 239 234 228 226 229 232 228 230 231 239 247 255 259 260 261 261 263 266 269 271 272 272 273 277 280
285 269 262 255 245 233 234 232 230 229 235 235 241 246 248 242 239 239 235 230 224 223 225 231 232 234 228 224 238 256 266 266 263 263 265 268 271 273 275 275 274 275 277
290 273 263 253 246 237 233 227 225 225 230 222 232 242 244 238 230 232 231 228 229 223 221 224 231 237 242 243 245 254 264 271 270 267 266 267 270 273 274 274 276 278 278
291 282 275 262 251 241 237 232 228 227 226 224 231 234 237 238 241 223 229 228 226 224 223 223 230 237 241 245 257 260 267 271 274 273 270 268 269 272 274 274 276 277 277
294 291 284 271 255 244 240 237 234 235 227 224 228 238 255 276 249 239 232 235 239 237 234 230 231 233 237 246 254 269 280 278 277 279 278 274 272 272 272 272 273 276 276
310 305 294 285 276 262 251 242 237 233 230 228 228 230 235 247 252 249 250 243 250 252 250 247 242 242 245 251 260 274 281 279 280 280 280 280 277 275 276 275 274 274 275
295 301 298 289 280 274 264 251 243 237 234 232 230 230 233 231 235 239 247 251 256 257 255 250 244 248 252 257 265 279 281 278 280 282 282 283 282 281 280 280 278 276 275
290 298 297 290 289 287 279 267 254 243 235 232 231 232 235 238 244 247 252 259 266 266 258 248 240 248 253 266 275 282 278 276 278 280 280 280 282 283 281 280 280 280 278
289 297 298 298 297 293 284 277 268 256 243 235 230 229 230 236 239 241 245 253 263 262 252 250 249 245 257 271 281 284 280 277 278 279 279 280 280 281 281 280 280 280 279
295 299 297 299 300 294 288 277 261 256 242 237 228 226 230 235 235 240 243 246 251 262 261 256 253 253 267 275 280 279 280 281 279 278 278 279 280 280 279 279 280 279 279
287 292 293 291 291 286 276 261 253 250 231 230 234 229 233 239 238 240 242 249 250 256 263 267 265 273 276 278 280 281 282 285 277 274 275 278 281 282 279 276 277 278 278
271 272 275 273 276 277 270 255 244 240 230 232 230 228 234 238 239 241 241 246 255 257 262 272 274 278 278 282 285 286 287 286 284 279 280 280 281 281 279 278 277 278 278
267 262 256 254 258 261 259 249 241 235 229 231 236 236 243 242 243 249 249 252 256 260 263 272 277 280 281 286 290 291 291 291 289 288 285 284 283 282 282 280 278 279 278
262 261 257 251 250 249 244 240 237 236 232 235 240 242 246 245 245 249 250 255 260 264 265 270 278 283 285 289 293 293 293 292 293 293 288 283 282 285 284 282 280 280 280
258 255 254 257 254 249 243 236 234 235 238 243 246 245 247 247 250 253 254 258 264 268 271 276 282 285 287 295 296 296 298 297 296 296 291 293 291 287 283 281 279 278 279
253 254 254 254 252 248 243 238 233 234 235 240 245 249 252 257 264 260 261 266 269 270 276 280 285 286 288 299 298 297 296 302 298 294 301 299 297 292 290 286 279 276 279
245 245 246 250 249 244 234 236 237 233 232 235 241 246 249 247 247 249 257 267 270 269 274 279 284 286 290 293 294 297 300 303 300 302 305 300 297 293 294 293 292 288 285
236 241 244 243 242 233 222 228 233 235 231 234 239 244 247 254 258 260 259 265 272 269 265 270 277 281 289 295 295 293 293 294 291 300 301 293 297 295 298 298 298 295 294
229 234 238 239 238 232 223 227 230 229 230 234 241 248 251 259 264 275 277 279 287 292 287 276 277 287 295 300 295 291 292 293 291 295 294 287 296 299 304 301 299 298 300
228 229 231 232 234 233 220 223 228 227 230 235 243 257 263 263 275 276 268 274 289 302 314 303 303 304 308 310 306 299 296 297 298 304 304 289 300 307 302 295 299 302 304
227 225 229 233 235 236 223 225 227 229 235 240 249 257 263 269 281 275 266 269 282 297 305 311 312 314 311 316 319 303 296 292 296 298 309 307 302 315 305 293 304 308 304
Height
1517 1518 1518 1519 1520 1520 1521 1522 1522 1523 1524 1525 1526 1526 1527 1528 1528 1528 1529 1529 1530 1531 1531 1531 1532 1532 1532 1532 1531 1531 1531 1531 1531 1531 1530 1530 1529 1529 1528 1527 1526 1525 1523
1514 1514 1515 1515 1516 1517 1517 1518 1519 1519 1520 1521 1522 1523 1524 1524 1525 1525 1525 1526 1526 1527 1528 1528 1529 1529 1529 1529 1529 1529 1529 1529 1529 1528 1528 1527 1527 1526 1526 1525 1524 1523 1521
1510 1511 1511 1512 1512 1513 1514 1515 1515 1516 1516 1517 1518 1519 1520 1520 1521 1522 1522 1522 1523 1523 1524 1525 1525 1526 1526 1526 1526 1526 1526 1526 1526 1525 1525 1525 1524 1523 1523 1522 1521 1520 1518
1506 1507 1507 1508 1509 1509 1510 1511 1511 1512 1513 1513 1514 1515 1515 1516 1517 1518 1518 1518 1519 1520 1520 1521 1521 1522 1523 1523 1523 1523 1523 1522 1522 1522 1521 1521 1521 1520 1519 1518 1517 1516 1515
1502 1503 1503 1504 1504 1505 1506 1506 1507 1508 1509 1510 1511 1511 1511 1512 1513 1514 1514 1515 1515 1516 1516 1516 1517 1518 1519 1519 1519 1519 1518 1518 1518 1518 1517 1517 1516 1516 1515 1514 1513 1512 1511
1498 1498 1499 1499 1500 1501 1502 1502 1503 1504 1505 1505 1506 1507 1507 1508 1508 1509 1510 1511 1511 1511 1512 1513 1513 1514 1514 1514 1514 1514 1514 1514 1513 1513 1512 1512 1512 1511 1511 1510 1509 1508 1507
1494 1494 1495 1495 1496 1496 1497 1498 1499 1500 1501 1502 1503 1503 1503 1504 1504 1504 1505 1506 1507 1507 1508 1508 1508 1509 1509 1509 1509 1509 1509 1509 1508 1508 1507 1507 1507 1506 1506 1505 1504 1503 1502
1491 1491 1491 1491 1492 1492 1493 1494 1495 1495 1496 1498 1499 1499 1500 1500 1499 1500 1500 1501 1502 1503 1503 1503 1504 1504 1504 1504 1504 1504 1504 1504 1503 1503 1502 1501 1501 1501 1500 1499 1499 1497 1497
1487 1487 1488 1488 1488 1489 1489 1489 1490 1491 1492 1493 1494 1496 1496 1495 1496 1495 1496 1497 1497 1498 1498 1499 1499 1499 1499 1499 1499 1499 1498 1498 1498 1497 1496 1496 1495 1495 1494 1494 1493 1492 1491
1484 1484 1484 1485 1485 1485 1485 1486 1486 1487 1488 1488 1489 1490 1492 1492 1493 1492 1493 1493 1493 1493 1494 1494 1494 1494 1494 1494 1494 1493 1493 1492 1492 1491 1490 1490 1489 1488 1488 1488 1487 1486 1485
1481 1481 1481 1481 1481 1481 1481 1482 1482 1483 1483 1484 1485 1486 1487 1487 1488 1489 1488 1489 1489 1489 1489 1489 1489 1489 1489 1488 1488 1487 1487 1486 1486 1485 1484 1484 1483 1482 1482 1481 1480 1480 1479
1477 1477 1477 1477 1477 1477 1478 1478 1478 1479 1479 1480 1481 1481 1482 1483 1484 1484 1484 1484 1484 1484 1484 1484 1484 1484 1483 1483 1482 1482 1481 1480 1479 1479 1478 1477 1476 1475 1475 1474 1473 1473 1472
1474 1474 1474 1474 1474 1474 1474 1474 1474 1475 1475 1475 1476 1477 1477 1478 1479 1480 1480 1480 1479 1479 1479 1479 1479 1479 1478 1478 1477 1476 1475 1474 1473 1472 1471 1470 1469 1468 1467 1467 1466 1465 1465
1472 1471 1471 1471 1471 1470 1470 1470 1470 1471 1471 1471 1472 1472 1473 1473 1474 1474 1475 1476 1475 1475 1475 1474 1474 1473 1473 1472 1471 1470 1469 1468 1466 1465 1464 1463 1462 1461 1460 1460 1459 1458 1457
1469 1468 1468 1468 1467 1467 1467 1467 1467 1467 1467 1467 1468 1468 1469 1469 1470 1470 1470 1471 1472 1471 1470 1469 1469 1468 1468 1467 1465 1464 1462 1461 1460 1459 1457 1456 1455 1454 1453 1452 1451 1450 1450
1466 1465 1465 1465 1464 1464 1464 1464 1463 1463 1464 1464 1464 1464 1465 1465 1465 1465 1466 1466 1467 1467 1465 1464 1464 1463 1462 1461 1459 1458 1456 1454 1453 1452 1451 1449 1448 1447 1446 1444 1443 1442 1442
1463 1462 1462 1461 1461 1461 1460 1460 1460 1460 1460 1460 1460 1460 1461 1461 1461 1461 1461 1462 1462 1462 1460 1459 1459 1458 1457 1455 1454 1452 1450 1448 1447 1446 1444 1443 1441 1440 1438 1437 1436 1435 1434
1460 1459 1459 1458 1458 1457 1457 1457 1457 1457 1457 1456 1457 1457 1457 1457 1457 1457 1457 1457 1457 1457 1456 1454 1454 1453 1452 1450 1448 1447 1445 1443 1441 1439 1438 1436 1434 1433 1431 1430 1429 1427 1426
1457 1456 1456 1455 1454 1454 1454 1453 1453 1453 1453 1453 1453 1453 1453 1453 1453 1453 1453 1452 1452 1452 1451 1450 1448 1448 1446 1445 1443 1441 1440 1437 1435 1433 1431 1429 1428 1426 1425 1423 1421 1420 1419
1454 1453 1453 1452 1451 1451 1450 1450 1450 1450 1450 1450 1450 1450 1449 1449 1449 1449 1448 1448 1448 1447 1446 1445 1444 1442 1441 1440 1438 1436 1434 1432 1430 1428 1426 1424 1422 1420 1418 1416 1415 1413 1411
1451 1450 1450 1449 1448 1448 1447 1447 1446 1446 1446 1446 1446 1446 1446 1446 1445 1445 1445 1444 1444 1443 1442 1441 1439 1438 1437 1435 1433 1431 1429 1426 1424 1422 1420 1418 1416 1413 1411 1409 1407 1406 1404
1448 1447 1447 1446 1445 1445 1444 1444 1443 1443 1443 1443 1443 1442 1442 1442 1441 1441 1441 1440 1440 1439 1438 1437 1435 1434 1432 1431 1429 1427 1425 1422 1418 1418 1415 1412 1410 1407 1405 1403 1401 1399 1397
1445 1444 1443 1443 1442 1442 1441 1441 1440 1440 1440 1439 1439 1439 1439 1438 1438 1437 1436 1436 1435 1434 1434 1433 1431 1430 1428 1427 1425 1423 1421 1418 1415 1412 1410 1406 1404 1401 1399 1397 1395 1393 1390
1442 1441 1440 1440 1439 1439 1438 1438 1437 1437 1436 1436 1436 1436 1435 1435 1434 1434 1433 1432 1431 1430 1430 1429 1427 1426 1424 1423 1421 1419 1416 1413 1411 1408 1406 1402 1398 1396 1393 1391 1388 1386 1384
1439 1438 1437 1436 1436 1435 1435 1434 1434 1433 1433 1433 1433 1432 1432 1432 1431 1430 1429 1428 1428 1427 1426 1425 1423 1422 1420 1418 1416 1414 1412 1409 1405 1403 1402 1398 1394 1390 1387 1384 1382 1380 1378
1435 1435 1434 1433 1433 1432 1432 1431 1431 1430 1430 1430 1429 1429 1429 1428 1428 1427 1426 1425 1424 1423 1422 1421 1419 1418 1416 1414 1412 1410 1408 1406 1402 1399 1397 1395 1391 1387 1381 1378 1377 1375 1372